Klawock, AK

2:23 AM AKST on November 24, 2017 (GMT -0900)
Klawock

Weather History for PAKW - November, 2012

Change the Weather History Date:

Monday, November 26, 2012

  Actual Average Record
Temperature  
Mean Temperature 38 °F -  
Max Temperature 41 °F 40 °F 53 °F (2002)
Min Temperature 35 °F 32 °F 12 °F (2006)
Degree Days  
Heating Degree Days 27    
Moisture  
Dew Point 36 °F    
Average Humidity 93    
Maximum Humidity 100    
Minimum Humidity 89    
Precipitation  
Precipitation 0.03 in - - ()
Sea Level Pressure  
Sea Level Pressure 30.14 in    
Wind  
Wind Speed 4 mph (NNE)    
Max Wind Speed 12 mph    
Max Gust Speed -    
Visibility 10 miles    
Events Rain    
Averages and records for this station are not official NWS values.
T = Trace of Precipitation, MM = Missing Value Source: NWS Daily Summary

Daily Weather History Graph

Daily Weather History Graph

Search for Another Location

Airport or City:

Trip Planner

Search our weather history database for the weather conditions in past years. The results will help you decide how hot, cold, wet, or windy it might be!

Date:

Astronomy

Nov. 26, 2012 Rise Set
Actual Time 7:49 AM AKST 3:29 PM AKST
Civil Twilight 7:05 AM AKST 4:13 PM AKST
Nautical Twilight 6:18 AM AKST 5:00 PM AKST
Astronomical Twilight 5:34 AM AKST 5:44 PM AKST
Moon 2:35 PM AKST (11/26) 5:55 AM AKST (11/26)
Length of Visible Light 9h 08m
Length of Day
7h 40m
Waxing Gibbous, 97% of the Moon is Illuminated
Nov 26
Waxing Gibbous
Nov 28
Full
Dec 6
Last Quarter
Dec 12
New
Dec 19
First Quarter

Hourly Weather History & Observations

Time (AKST) Temp. Windchill Dew Point Humidity Pressure Visibility Wind Dir Wind Speed Gust Speed Precip Events Conditions
12:53 AM 37.9 °F - 37.0 °F 97% 30.21 in 10.0 mi Calm Calm - 0.01 in Rain Light Rain
1:53 AM 37.9 °F - 37.0 °F 97% 30.21 in 10.0 mi Calm Calm - 0.01 in Rain Light Rain
2:49 AM 37.4 °F 33.8 °F 37.4 °F 100% 30.20 in 10.0 mi NE 4.6 mph - 0.00 in   Overcast
3:53 AM 37.9 °F 34.4 °F 37.0 °F 97% 30.19 in 10.0 mi NNE 4.6 mph - 0.01 in Rain Light Rain
4:53 AM 37.9 °F 35.5 °F 37.0 °F 97% 30.18 in 10.0 mi Variable 3.5 mph - 0.00 in   Overcast
5:53 AM 37.9 °F 34.4 °F 36.0 °F 93% 30.17 in 10.0 mi NE 4.6 mph - N/A   Overcast
6:53 AM 37.9 °F - 37.0 °F 97% 30.18 in 10.0 mi Calm Calm - N/A   Overcast
7:53 AM 37.9 °F 33.5 °F 37.0 °F 97% 30.19 in 10.0 mi NNE 5.8 mph - N/A   Overcast
8:53 AM 39.0 °F - 37.0 °F 93% 30.19 in 10.0 mi Calm Calm - N/A   Overcast
9:53 AM 39.0 °F - 37.9 °F 96% 30.20 in 10.0 mi Calm Calm - N/A   Overcast
10:53 AM 39.9 °F 36.7 °F 37.9 °F 93% 30.19 in 10.0 mi NE 4.6 mph - N/A   Overcast
11:53 AM 41.0 °F 38.0 °F 37.9 °F 89% 30.18 in 10.0 mi NE 4.6 mph - N/A   Overcast
12:53 PM 41.0 °F 35.8 °F 37.9 °F 89% 30.16 in 10.0 mi NNE 8.1 mph - N/A   Overcast
1:53 PM 39.9 °F 35.8 °F 37.0 °F 89% 30.15 in 10.0 mi NE 5.8 mph - N/A   Scattered Clouds
2:53 PM 39.0 °F 33.4 °F 37.0 °F 93% 30.14 in 10.0 mi NNE 8.1 mph - N/A   Clear
3:53 PM 37.9 °F 31.5 °F 36.0 °F 93% 30.13 in 10.0 mi NNE 9.2 mph - N/A   Clear
4:53 PM 37.0 °F 29.8 °F 35.1 °F 93% 30.12 in 10.0 mi North 10.4 mph - N/A   Clear
5:53 PM 37.0 °F 34.5 °F 35.1 °F 93% 30.10 in 10.0 mi NE 3.5 mph - N/A   Clear
6:53 PM 36.0 °F 30.3 °F 34.0 °F 93% 30.09 in 10.0 mi NNE 6.9 mph - N/A   Clear
7:22 PM 35.6 °F 32.8 °F 33.8 °F 93% 30.09 in 10.0 mi Variable 3.5 mph - N/A   Partly Cloudy
7:53 PM 36.0 °F 30.3 °F 34.0 °F 93% 30.08 in 10.0 mi North 6.9 mph - N/A   Partly Cloudy
8:53 PM 36.0 °F 29.0 °F 34.0 °F 93% 30.07 in 10.0 mi North 9.2 mph - N/A   Clear
9:53 PM 36.0 °F - 33.1 °F 89% 30.06 in 10.0 mi Calm Calm - N/A   Clear
10:53 PM 35.1 °F 26.9 °F 32.0 °F 89% 30.05 in 10.0 mi NE 11.5 mph - N/A   Clear
11:53 PM 35.1 °F 29.3 °F 32.0 °F 89% 30.03 in 10.0 mi NE 6.9 mph - N/A   Clear